Mount Sterling, KY

3:02 PM EDT on August 22, 2017 (GMT -0400)
Mount Sterling-Montgomery County

Weather History for KIOB - April, 2014

Change the Weather History Date:

Thursday, April 24, 2014

  Actual Average Record
Temperature  
Mean Temperature 56 °F -  
Max Temperature 69 °F 69 °F 75 °F (2016)
Min Temperature 44 °F 44 °F 32 °F (2015)
Degree Days  
Heating Degree Days 8    
Growing Degree Days 6 (Base 50)    
Moisture  
Dew Point 35 °F    
Average Humidity 47    
Maximum Humidity 66    
Minimum Humidity 28    
Precipitation  
Precipitation 0.00 in - - ()
Sea Level Pressure  
Sea Level Pressure 30.00 in    
Wind  
Wind Speed 7 mph (ESE)    
Max Wind Speed 13 mph    
Max Gust Speed 20 mph    
Visibility 10 miles    
Events      
Averages and records for this station are not official NWS values.
T = Trace of Precipitation, MM = Missing Value Source: NWS Daily Summary

Daily Weather History Graph

Daily Weather History Graph

Search for Another Location

Airport or City:

Trip Planner

Search our weather history database for the weather conditions in past years. The results will help you decide how hot, cold, wet, or windy it might be!

Date:

Astronomy

Apr. 24, 2014 Rise Set
Actual Time 6:48 AM EDT 8:20 PM EDT
Civil Twilight 6:20 AM EDT 8:48 PM EDT
Nautical Twilight 5:47 AM EDT 9:21 PM EDT
Astronomical Twilight 5:11 AM EDT 9:57 PM EDT
Moon 3:53 AM EDT (4/24) 3:39 PM EDT (4/24)
Length of Visible Light 14h 27m
Length of Day
13h 32m
Waning Crescent, 24% of the Moon is Illuminated
Apr 24
Waning Crescent
Apr 29
New
May 6
First Quarter
May 14
Full
May 21
Last Quarter

Hourly Weather History & Observations

Time (EDT) Temp. Windchill Dew Point Humidity Pressure Visibility Wind Dir Wind Speed Gust Speed Precip Events Conditions
12:15 AM 46.4 °F 43.5 °F 33.8 °F 62% 30.09 in 10.0 mi East 5.8 mph - N/A   Clear
12:35 AM 46.4 °F 44.3 °F 33.8 °F 62% 30.08 in 10.0 mi East 4.6 mph - N/A   Clear
12:55 AM 46.4 °F 43.5 °F 33.8 °F 62% 30.08 in 10.0 mi East 5.8 mph - N/A   Clear
1:15 AM 46.4 °F 43.5 °F 33.8 °F 62% 30.07 in 10.0 mi East 5.8 mph - N/A   Clear
1:35 AM 46.4 °F 42.9 °F 33.8 °F 62% 30.07 in 10.0 mi East 6.9 mph - N/A   Clear
1:55 AM 46.4 °F 42.9 °F 33.8 °F 62% 30.07 in 10.0 mi East 6.9 mph - N/A   Clear
2:15 AM 46.4 °F 42.4 °F 33.8 °F 62% 30.07 in 10.0 mi East 8.1 mph - N/A   Clear
2:35 AM 46.4 °F 42.4 °F 33.8 °F 62% 30.07 in 10.0 mi East 8.1 mph - N/A   Clear
2:55 AM 46.4 °F 41.9 °F 33.8 °F 62% 30.07 in 10.0 mi East 9.2 mph - N/A   Clear
3:15 AM 46.4 °F 42.4 °F 33.8 °F 62% 30.08 in 10.0 mi East 8.1 mph - N/A   Clear
3:35 AM 46.4 °F 41.9 °F 33.8 °F 62% 30.07 in 10.0 mi ESE 9.2 mph - N/A   Mostly Cloudy
3:55 AM 46.4 °F 41.9 °F 33.8 °F 62% 30.06 in 10.0 mi ESE 9.2 mph - N/A   Overcast
4:15 AM 46.4 °F 42.9 °F 33.8 °F 62% 30.07 in 10.0 mi ESE 6.9 mph - N/A   Mostly Cloudy
4:35 AM 46.4 °F 42.9 °F 33.8 °F 62% 30.07 in 10.0 mi ESE 6.9 mph - N/A   Scattered Clouds
4:55 AM 46.4 °F 42.4 °F 33.8 °F 62% 30.06 in 10.0 mi ESE 8.1 mph - N/A   Clear
5:15 AM 44.6 °F 41.4 °F 33.8 °F 66% 30.07 in 10.0 mi East 5.8 mph - N/A   Clear
5:35 AM 44.6 °F 40.7 °F 33.8 °F 66% 30.07 in 10.0 mi East 6.9 mph - N/A   Clear
5:55 AM 46.4 °F 42.4 °F 33.8 °F 62% 30.08 in 10.0 mi ESE 8.1 mph - N/A   Clear
6:15 AM 44.6 °F 40.2 °F 33.8 °F 66% 30.08 in 10.0 mi East 8.1 mph - N/A   Clear
6:35 AM 44.6 °F 40.2 °F 33.8 °F 66% 30.08 in 10.0 mi East 8.1 mph - N/A   Clear
6:55 AM 44.6 °F 39.7 °F 33.8 °F 66% 30.08 in 10.0 mi ESE 9.2 mph - N/A   Scattered Clouds
7:15 AM 44.6 °F 39.7 °F 33.8 °F 66% 30.08 in 10.0 mi ESE 9.2 mph - N/A   Overcast
7:35 AM 44.6 °F 40.7 °F 33.8 °F 66% 30.10 in 10.0 mi East 6.9 mph - N/A   Mostly Cloudy
7:55 AM 44.6 °F 40.2 °F 33.8 °F 66% 30.10 in 10.0 mi East 8.1 mph - N/A   Overcast
8:15 AM 46.4 °F 41.1 °F 33.8 °F 62% 30.10 in 10.0 mi East 11.5 mph - N/A   Overcast
8:35 AM 46.4 °F 40.7 °F 33.8 °F 62% 30.10 in 10.0 mi East 12.7 mph 19.6 mph N/A   Scattered Clouds
8:55 AM 46.4 °F 41.5 °F 33.8 °F 62% 30.11 in 10.0 mi East 10.4 mph - N/A   Scattered Clouds
9:15 AM 48.2 °F - 33.8 °F 58% 30.10 in 10.0 mi East 9.2 mph - N/A   Scattered Clouds
9:35 AM 50.0 °F - 35.6 °F 58% 30.10 in 10.0 mi East 12.7 mph 16.1 mph N/A   Clear
9:55 AM 50.0 °F - 33.8 °F 54% 30.10 in 10.0 mi ESE 11.5 mph - N/A   Clear
10:15 AM 51.8 °F - 35.6 °F 54% 30.10 in 10.0 mi SE 10.4 mph - N/A   Clear
10:35 AM 53.6 °F - 33.8 °F 47% 30.09 in 10.0 mi ESE 9.2 mph - N/A   Clear
10:55 AM 53.6 °F - 35.6 °F 51% 30.09 in 10.0 mi ESE 11.5 mph - N/A   Clear
11:15 AM 53.6 °F - 33.8 °F 47% 30.09 in 10.0 mi ESE 8.1 mph - N/A   Clear
11:35 AM 55.4 °F - 33.8 °F 44% 30.08 in 10.0 mi ESE 10.4 mph - N/A   Clear
11:55 AM 57.2 °F - 35.6 °F 44% 30.08 in 10.0 mi SE 6.9 mph - N/A   Clear
12:15 PM 59.0 °F - 35.6 °F 42% 30.07 in 10.0 mi ESE 9.2 mph - N/A   Clear
12:35 PM 59.0 °F - 35.6 °F 42% 30.06 in 10.0 mi East 6.9 mph - N/A   Clear
12:55 PM 60.8 °F - 35.6 °F 39% 30.05 in 10.0 mi SE 5.8 mph - N/A   Clear
1:15 PM 60.8 °F - 35.6 °F 39% 30.03 in 10.0 mi ESE 6.9 mph - N/A   Clear
1:35 PM 62.6 °F - 35.6 °F 37% 30.02 in 10.0 mi East 5.8 mph - N/A   Clear
1:55 PM 62.6 °F - 37.4 °F 39% 30.01 in 10.0 mi East 8.1 mph - N/A   Clear
2:15 PM 64.4 °F - 35.6 °F 34% 30.00 in 10.0 mi ESE 8.1 mph - N/A   Clear
2:35 PM 64.4 °F - 35.6 °F 34% 29.99 in 10.0 mi ESE 4.6 mph - N/A   Clear
2:55 PM 64.4 °F - 35.6 °F 34% 29.98 in 10.0 mi East 6.9 mph - N/A   Clear
3:15 PM 68.0 °F - 37.4 °F 33% 29.97 in 10.0 mi ESE 6.9 mph - N/A   Clear
3:35 PM 68.0 °F - 35.6 °F 30% 29.97 in 10.0 mi ESE 5.8 mph - N/A   Clear
3:55 PM 68.0 °F - 35.6 °F 30% 29.96 in 10.0 mi Calm Calm - N/A   Clear
4:15 PM 68.0 °F - 35.6 °F 30% 29.95 in 10.0 mi Calm Calm - N/A   Clear
4:35 PM 69.8 °F - 35.6 °F 28% 29.95 in 10.0 mi Calm Calm - N/A   Scattered Clouds
4:55 PM 69.8 °F - 37.4 °F 31% 29.93 in 10.0 mi East 5.8 mph - N/A   Scattered Clouds
5:15 PM 69.8 °F - 35.6 °F 28% 29.92 in 10.0 mi ESE 3.5 mph - N/A   Clear
5:35 PM 69.8 °F - 37.4 °F 31% 29.91 in 10.0 mi East 3.5 mph - N/A   Clear
5:55 PM 69.8 °F - 39.2 °F 33% 29.91 in 10.0 mi East 6.9 mph - N/A   Clear
6:15 PM 69.8 °F - 37.4 °F 31% 29.89 in 10.0 mi East 9.2 mph - N/A   Clear
6:35 PM 69.8 °F - 37.4 °F 31% 29.89 in 10.0 mi East 6.9 mph - N/A   Clear
6:55 PM 68.0 °F - 35.6 °F 30% 29.88 in 10.0 mi ENE 6.9 mph - N/A   Clear
7:15 PM 68.0 °F - 37.4 °F 33% 29.87 in 10.0 mi ENE 4.6 mph - N/A   Clear
7:35 PM 66.2 °F - 37.4 °F 35% 29.87 in 10.0 mi ENE 4.6 mph - N/A   Clear
7:55 PM 64.4 °F - 37.4 °F 37% 29.86 in 10.0 mi East 5.8 mph - N/A   Clear
8:15 PM 64.4 °F - 37.4 °F 37% 29.86 in 10.0 mi East 4.6 mph - N/A   Clear
8:35 PM 64.4 °F - 35.6 °F 34% 29.85 in 10.0 mi ESE 5.8 mph - N/A   Clear
8:55 PM 64.4 °F - 35.6 °F 34% 29.85 in 10.0 mi ESE 5.8 mph - N/A   Clear
9:15 PM 64.4 °F - 35.6 °F 34% 29.85 in 10.0 mi ESE 6.9 mph - N/A   Clear
9:35 PM 62.6 °F - 33.8 °F 34% 29.85 in 10.0 mi ESE 6.9 mph - N/A   Clear
9:55 PM 62.6 °F - 33.8 °F 34% 29.85 in 10.0 mi ESE 6.9 mph - N/A   Clear
10:15 PM 62.6 °F - 33.8 °F 34% 29.85 in 10.0 mi SE 5.8 mph - N/A   Clear
10:35 PM 60.8 °F - 33.8 °F 36% 29.83 in 10.0 mi SE 5.8 mph - N/A   Clear
10:55 PM 60.8 °F - 33.8 °F 36% 29.83 in 10.0 mi SE 5.8 mph - N/A   Clear
11:15 PM 55.4 °F - 35.6 °F 47% 29.83 in 10.0 mi SE 4.6 mph - N/A   Clear
11:35 PM 60.8 °F - 33.8 °F 36% 29.82 in 10.0 mi SE 5.8 mph - N/A   Clear
11:55 PM 60.8 °F - 32.0 °F 34% 29.83 in 10.0 mi SSE 5.8 mph - N/A   Clear